Showing default

CSG-1, 44873

Orbit data source: Space-Track

CSG-1, 44873 is an Italian payload satellite in SSO that was launched on Wed, 18 Dec 2019 UTC via a SOYUZ-ST-A launch vehicle from the French Guiana (FRGUI). Payload-class satellites include a variety of spacecraft equipped with specific instruments for various scientific and technological missions. These include communications satellites like Starlink; space stations such as the ISS; scientific satellites like the Hubble; Earth observation satellites from companies like Planet Labs, Umbra, and HawkEye 360; GPS; miniature CubeSats for education and research; and military/defense satellites.

Loading next visibility...
Identifier
44873, 2019-092A
Orbit
SSO
Last TLE update
5 hours ago
Origin
Manufacturer
Thales Alenia
Mission
Operational Defense Radar Imaging
Bus & Motor
PRIMA, AOCS
Mass
2,205 kg wet, ~1,800 kg dry
Launch date (UTC)
2019-12-18 (5 years ago)
Launch vehicle
SOYUZ-ST-A
Launch site
French Guiana (FRGUI)
Object type
Payload
Rocket body
Debris
Shape & HBR
Box + 3 Pan, Unknown HBR
Radar Cross Section
8.940 m², Large (>1 m²)

Expand to show TLE details & history

TLE from 5 hours ago
0 CSG-1
1 44873U 19092A   25129.13590418  .00000755  00000-0  10139-3 0  9991
2 44873  97.8877 313.6021 0001549  85.6479 274.4911 14.82141716291621
Epoch: 2025-05-09T03:15Z
Definitive object data (Epoch: 2025-05-09T03:15:42.121Z)
Latitude
-0.00001°
Longitude
37.48021°
Altitude
625.512 km
Speed
7.546 km/s
True Right ascension
20h 54m 24s
True Declination
0° 00' 00"
Sunlit
Object was in daylight at TLE epoch
Visualization TLE readout
Latitude
75.2772°
Longitude
6.06752°
Altitude
634.345 km
Speed
7.548 km/s
Apparent Right ascension
03h 33m 42s
Apparent Declination
37° 16' 55"
Sunlit
Object is in daylight
Visualization observer readout
Local Sidereal Time
16:37:23
Azimuth
12.869° NNE
Elevation
-11.43°
Doppler factor
1
Orbital elements
Apogee altitude
620.693 km
Perigee altitude
618.525 km
Semi-major axis
6,997.746 km
Eccentricity
0.0001549
Inclination
97.8877°
RAAN
313.6021°
Arg. of periapsis
85.6479°
True anomaly
274.4734°
Mean anomaly
274.4911°
Eccentric anomaly
274.48225°
Mean motion
3.70771 °/min
BSTAR
0.00010139
Orbital period
97.09 mins
Loading maneuver chart data...
Loading SW <> Apogee altitude chart data...
Loading historical data...
Loading historical data...
Loading historical data...
Loading historical data...
Loading historical data...
Loading historical data...
Loading historical data...

CSG-1 Visibility forecast

Observer location: undefined°, undefined°

Span
Click to sort rows by Start time (UTC) header in descending order
Start Az.
Max El. time (UTC)
Max El. Az.
Max El.
End time (UTC)
End Az.
6 mins2025-05-09 11:30:13.742Z123.11° SE2025-05-09 11:33:13.742Z72.256° E24.739°2025-05-09 11:36:13.742Z17.738° NNE
5 mins2025-05-09 13:07:13.742Z223.052° SW2025-05-09 13:09:13.742Z259.698° W22.402°2025-05-09 13:12:13.742Z312.905° NW
7 mins2025-05-10 00:54:13.742Z24.092° NE2025-05-10 00:57:13.742Z92.748° ESE40.817°2025-05-10 01:01:13.742Z180.277° SSW
|